EHI
8 11 19 31 39 39 38 40 44 47 44 40 35 27 20 13 7 4 1 1 2 3 3 2 1 1 1 1 0 0 0 0 0 0 0 0 0 0 0 0 0 0 0
8 12 21 31 38 39 37 38 44 50 51 51 44 32 22 14 8 4 1 0 1 3 3 2 2 1 1 0 0 0 0 0 0 0 0 0 0 0 0 0 0 0 0
14 18 25 32 36 37 36 36 43 53 58 59 54 43 31 22 15 8 3 0 0 1 1 1 1 1 0 0 0 0 0 0 0 0 0 0 0 0 0 0 0 0 0
21 22 27 32 33 33 31 33 41 50 56 60 59 52 42 32 22 13 5 1 0 0 0 0 0 0 0 0 0 0 0 0 0 0 0 0 0 0 0 0 0 0 0
22 23 24 26 25 23 24 28 34 41 49 56 56 51 42 32 21 12 4 1 0 0 0 0 0 0 0 0 0 0 0 0 0 0 0 0 0 0 0 0 0 0 0
19 19 19 19 18 17 18 23 27 32 38 43 42 37 29 22 14 8 3 1 0 0 0 0 0 0 0 0 0 0 0 0 0 0 0 0 0 0 0 0 0 0 0
11 11 11 11 13 14 14 16 20 24 26 26 24 20 15 12 9 6 3 1 0 0 0 0 0 0 0 0 0 0 0 0 0 0 0 0 0 0 0 0 0 0 0
2 3 4 4 6 8 9 9 13 16 16 13 10 7 6 5 4 3 1 0 0 0 0 0 0 0 0 0 0 0 0 0 0 0 0 0 0 0 0 0 0 0 0
0 0 0 0 1 2 3 4 6 7 7 5 4 3 3 2 1 1 0 0 0 0 0 0 0 0 0 0 0 0 0 0 0 0 0 0 0 0 0 0 0 0 0
0 0 0 0 0 0 0 1 2 3 2 2 2 2 1 1 0 0 0 0 0 0 0 0 0 0 0 0 0 0 0 0 0 0 0 0 0 0 0 0 0 0 0
0 0 0 0 0 0 0 0 1 1 1 1 1 1 0 0 0 0 0 0 0 0 0 0 0 0 0 0 0 0 0 0 0 0 0 0 0 0 0 0 0 0 0
0 0 0 0 0 0 0 0 0 0 0 0 0 0 0 0 0 0 0 0 0 0 0 0 0 0 0 0 0 0 0 0 0 0 0 0 0 0 0 0 0 0 0
0 0 0 0 0 0 0 0 0 0 0 0 0 0 0 0 0 0 0 0 0 0 0 0 0 0 0 0 0 0 0 0 0 0 0 0 0 0 0 0 0 0 0
0 0 0 0 0 0 0 0 0 0 0 0 0 0 0 0 0 0 0 0 0 0 0 0 0 0 0 0 0 0 0 0 0 0 0 0 0 0 0 0 0 0 0
0 0 0 0 0 0 0 0 0 0 0 0 0 0 0 0 0 0 0 0 0 0 0 0 0 0 0 0 0 0 0 0 0 0 0 0 0 0 0 0 0 0 0
0 0 0 0 0 0 0 0 0 0 0 0 0 0 0 0 0 0 0 0 0 0 0 0 0 0 0 0 0 0 0 0 0 0 0 0 0 0 0 0 0 0 0
0 0 0 0 0 0 0 0 0 0 0 0 0 0 0 0 0 0 0 0 0 0 0 0 0 0 0 0 0 0 0 0 0 0 0 0 0 0 0 0 0 0 0
0 0 0 0 0 0 0 0 0 0 0 0 0 0 0 0 0 0 0 0 0 0 0 0 0 0 0 0 0 0 0 0 0 0 0 0 0 0 0 0 0 0 0
0 0 0 0 0 0 0 0 0 0 0 0 0 0 0 0 0 0 0 0 0 0 0 0 0 0 0 0 0 0 0 0 0 0 0 0 0 0 0 0 0 0 0
0 0 0 0 0 0 0 0 0 0 0 0 0 0 0 0 0 0 0 0 0 0 0 0 0 0 0 0 0 0 0 0 0 0 0 0 0 0 0 0 0 0 0
0 0 0 0 0 0 0 0 0 0 0 0 0 0 0 0 0 0 0 0 0 0 0 0 0 0 0 0 0 0 0 0 0 0 0 0 0 0 0 0 0 0 0
0 0 0 0 0 0 0 0 0 0 0 0 0 0 0 0 0 0 0 0 0 0 0 0 0 0 0 0 0 0 0 0 0 0 0 0 0 0 0 0 0 0 0
0 0 0 0 0 0 0 0 0 0 0 0 0 0 0 0 0 0 0 0 0 0 0 0 0 0 0 0 0 0 0 0 0 0 0 0 0 0 0 0 0 0 0
0 0 0 0 0 0 0 0 0 0 0 0 0 0 0 0 0 0 0 0 0 0 0 0 0 0 0 0 0 0 0 0 0 0 0 0 0 0 0 0 0 0 0
0 0 0 0 0 0 0 0 0 0 0 0 0 0 0 0 0 0 0 0 0 0 0 0 0 0 0 0 0 0 0 0 0 0 0 0 0 0 0 0 0 0 0
0 0 0 0 0 0 0 0 0 0 0 0 0 0 0 0 0 0 0 0 0 0 0 0 0 0 0 0 0 0 0 0 0 0 0 0 0 0 0 0 0 0 0
Wind_Speed
6 5 6 8 8 9 10 11 12 11 9 7 6 5 5 4 3 3 4 5 5 6 6 5 6 5 5 5 6 4 5 3 2 3 3 3 4 5 4 3 3 3 3
2 3 3 4 7 9 9 9 10 11 11 8 6 3 4 3 2 2 2 3 5 5 5 6 5 5 6 6 5 5 3 2 1 2 3 1 1 3 4 4 3 4 4
2 2 2 1 2 4 6 7 9 9 9 8 6 5 4 3 3 3 3 3 5 5 6 7 6 5 5 6 5 5 5 4 2 2 3 4 4 1 2 4 4 5 5
7 6 6 4 3 1 1 3 6 7 8 9 9 9 7 5 4 4 4 5 5 6 6 7 7 6 5 5 4 3 3 5 3 2 3 2 3 4 2 1 3 4 6
10 10 9 6 5 4 3 2 4 6 7 8 9 8 5 4 5 6 7 6 5 5 6 7 7 6 5 6 6 5 4 3 4 3 2 3 3 3 3 2 1 2 3
11 11 10 9 8 6 5 4 5 5 6 7 8 8 8 8 8 7 6 5 4 5 6 7 7 7 6 7 7 6 7 6 6 5 3 2 3 2 3 2 1 0 1
11 11 12 11 10 9 7 5 6 5 6 7 7 7 7 8 9 7 6 6 5 4 6 8 7 7 7 8 8 8 8 8 9 7 5 5 3 2 2 2 1 0 1
11 12 12 11 10 10 9 7 7 7 7 8 7 7 7 6 6 7 7 7 6 6 7 9 9 9 8 9 9 8 8 8 9 9 7 5 4 3 2 2 2 0 1
11 11 11 11 11 11 11 10 10 10 10 10 10 9 9 9 10 10 10 8 8 8 9 10 10 10 9 9 9 8 8 8 8 7 7 5 4 4 3 2 2 2 1
10 10 11 11 11 11 11 12 12 12 12 12 10 10 11 11 11 11 12 11 10 10 10 11 11 11 10 10 9 8 7 8 6 5 6 5 3 3 3 2 2 1 2
9 9 9 10 11 12 12 12 13 13 13 13 13 13 13 13 13 12 12 11 11 11 12 11 11 11 10 9 8 7 6 7 6 5 5 5 3 3 2 2 1 1 1
9 9 10 11 11 12 12 12 12 13 12 12 14 15 14 14 14 14 13 13 12 12 12 11 11 11 10 8 8 7 6 6 5 4 4 3 2 2 1 1 1 1 2
9 9 10 11 11 11 12 12 12 12 12 12 14 14 14 14 14 13 13 13 12 12 12 11 11 10 9 8 7 6 5 5 4 3 2 1 1 1 1 1 1 1 2
8 9 10 10 11 11 11 11 12 12 12 13 14 14 13 13 12 12 12 12 11 11 10 10 9 9 8 7 6 5 5 5 4 3 2 1 1 1 1 1 2 2 3
10 11 10 10 10 11 11 11 11 11 11 12 13 12 11 11 11 12 11 11 10 10 8 8 8 6 6 5 5 5 5 4 4 4 4 3 3 2 1 1 2 2 3
10 11 11 10 10 10 10 10 10 10 10 11 11 11 11 11 10 10 10 9 8 7 6 6 6 6 5 7 8 6 4 4 4 4 5 5 4 6 6 6 6 6 6
10 10 9 9 9 8 8 9 9 9 10 10 10 10 9 9 8 8 8 7 6 5 5 5 4 4 4 6 7 8 4 4 4 4 4 4 5 6 4 7 10 10 12
9 9 8 8 8 8 8 8 8 9 9 9 8 8 7 7 7 7 7 5 4 4 3 2 2 2 2 4 5 6 4 3 4 4 4 4 6 5 6 7 8 9 10
8 8 8 8 7 7 6 8 8 7 8 7 6 6 6 6 6 6 4 3 2 2 1 1 1 1 2 4 5 4 3 4 5 5 5 5 6 8 9 7 8 10 10
7 8 8 8 7 6 6 8 7 7 6 5 5 5 5 5 5 4 3 2 2 2 2 2 2 2 3 5 6 4 2 4 6 6 7 8 8 10 10 7 7 9 9
8 8 8 7 5 5 6 7 6 5 4 4 5 5 4 4 4 3 2 2 2 3 3 3 3 3 3 5 6 6 2 4 5 6 6 7 11 13 12 9 6 9 9
8 7 7 6 4 4 6 6 4 3 3 4 4 4 3 3 3 3 2 2 2 2 2 2 2 2 3 4 6 8 7 6 5 6 6 8 13 14 13 8 7 9 7
6 6 7 6 4 4 5 5 2 2 4 4 3 2 2 2 2 2 2 1 2 1 1 1 1 2 2 4 6 8 9 10 5 6 11 13 13 12 8 7 9 6 3
6 5 6 5 4 3 3 2 1 2 3 3 1 1 1 1 1 1 1 1 1 0 0 0 1 2 3 3 4 5 6 8 7 6 9 11 9 6 6 6 5 3 2
4 4 5 4 2 1 1 1 1 2 2 2 1 0 0 1 0 0 0 1 1 2 2 1 1 1 3 4 7 6 6 6 6 7 5 4 5 6 6 6 5 4 4
4 4 3 2 1 1 1 1 1 2 2 1 1 1 1 1 1 1 1 3 1 1 2 3 2 2 4 7 9 9 10 10 9 5 4 5 5 5 5 6 6 5 5
Wind_Direction
202 182 180 179 177 182 184 183 180 174 167 172 177 179 178 169 169 168 173 170 163 166 161 158 153 150 145 143 135 116 104 85 89 93 67 38 42 46 33 31 42 36 33
168 167 166 167 181 185 186 186 183 176 178 182 172 160 137 139 138 133 131 137 145 151 154 150 148 144 134 136 137 128 117 90 53 126 123 106 27 27 24 30 44 43 40
72 65 83 135 162 177 190 187 185 185 181 163 136 117 108 112 133 141 126 111 123 131 135 135 135 140 139 144 141 141 137 134 83 47 149 158 183 126 28 31 41 47 51
45 42 36 29 21 351 186 177 177 178 171 162 161 162 173 173 162 141 128 117 114 117 120 125 128 126 121 126 128 127 130 133 134 86 49 74 120 141 126 35 30 48 52
46 44 38 33 30 25 38 115 146 154 158 161 164 163 155 138 125 123 122 108 99 102 111 116 116 112 108 108 104 102 101 106 123 126 120 90 71 74 128 135 28 40 42
44 43 39 37 35 37 44 62 106 125 141 144 148 156 153 143 137 137 133 120 105 92 91 93 95 98 98 98 97 94 91 89 92 90 90 110 110 100 101 121 112 20 19
43 41 37 35 34 37 42 55 86 96 107 118 124 133 137 136 139 140 127 119 105 92 92 93 92 92 93 94 94 91 86 86 89 88 82 77 78 97 100 105 112 354 324
42 42 38 35 35 37 42 56 72 77 83 92 94 97 102 106 106 105 108 104 98 93 94 93 91 91 92 93 91 91 90 89 90 90 86 82 69 69 90 118 135 155 306
44 44 42 40 39 40 41 51 66 68 69 78 84 82 85 92 96 95 93 93 94 95 91 92 89 85 84 85 86 87 88 90 90 92 91 85 74 69 68 83 115 149 231
46 44 43 43 43 44 45 49 57 64 66 70 76 82 84 86 90 91 90 90 88 88 87 85 85 83 80 81 82 84 86 90 87 93 95 92 88 82 81 85 89 114 168
48 45 44 45 49 50 51 52 55 62 66 70 75 78 77 79 81 82 82 83 82 83 82 81 81 79 76 75 80 81 83 89 87 88 99 100 109 106 102 105 116 136 173
57 52 48 48 49 52 55 57 59 63 67 74 78 78 76 77 77 77 76 77 75 74 77 77 75 74 72 69 72 76 71 78 80 76 86 92 101 101 118 138 164 193 206
68 64 58 54 52 52 56 61 64 68 69 73 77 77 77 78 78 79 79 78 78 76 75 76 74 70 67 64 62 65 64 63 62 61 73 76 82 96 181 208 230 240 239
78 76 71 65 63 60 60 62 63 66 70 72 75 76 76 78 80 81 81 82 83 81 79 79 79 76 71 66 63 63 57 52 46 36 25 349 289 247 240 247 257 262 274
77 75 74 70 67 65 63 64 64 64 70 74 75 76 77 80 82 82 82 83 83 86 86 85 81 77 71 64 62 56 53 41 32 21 6 335 339 348 288 290 265 263 283
89 85 81 76 72 70 68 67 66 65 71 75 77 77 78 78 80 83 86 87 87 86 86 84 83 74 69 67 70 73 55 41 28 9 352 339 1 356 350 335 317 301 297
94 89 82 75 72 70 73 74 73 71 73 76 78 79 81 82 84 92 92 92 90 89 86 83 83 78 66 64 63 64 60 36 15 357 345 342 343 345 330 321 317 309 299
94 89 84 79 72 71 72 76 76 77 80 80 81 83 85 86 85 87 89 90 90 93 93 90 83 68 38 41 43 46 37 13 352 339 328 321 318 317 323 317 310 305 299
92 88 85 85 83 78 81 84 80 78 82 83 82 83 88 90 89 88 87 84 87 79 66 62 36 355 344 1 10 23 1 343 333 326 318 311 306 308 320 317 309 307 304
89 91 90 86 82 78 86 88 84 84 85 87 87 86 91 95 94 92 83 63 66 51 41 33 12 356 347 360 7 10 347 331 325 320 315 313 308 307 313 308 299 298 302
92 92 89 85 82 87 92 90 87 85 89 91 88 85 89 99 101 87 67 66 62 53 40 35 23 18 13 9 12 10 349 322 316 315 317 313 314 312 311 304 278 269 283
93 93 92 83 75 90 98 93 85 81 88 90 88 85 81 80 95 91 73 62 65 58 35 25 16 10 5 3 355 354 345 332 309 304 306 303 308 310 311 309 297 300 300
94 92 97 88 72 79 102 102 99 103 99 92 89 78 66 58 81 102 99 74 68 64 21 19 358 336 333 333 340 340 335 332 319 297 300 306 310 313 314 316 322 327 325
97 98 97 92 82 81 92 110 122 122 117 112 103 81 76 50 48 66 118 139 148 143 86 17 343 327 326 330 336 334 330 331 328 320 315 316 314 318 318 324 336 339 313
98 100 103 105 107 108 103 130 144 134 127 132 127 94 200 222 120 69 70 203 215 201 184 197 218 306 325 312 316 321 322 321 315 319 320 337 345 353 352 345 339 335 339
108 108 110 119 129 140 263 283 188 157 158 188 241 239 243 239 192 150 61 39 51 115 169 186 202 259 273 302 321 330 330 329 330 332 333 338 345 345 340 337 333 331 338